Tracking 32420 objects as of 8-Dec-2025
HD Live streaming from Space Station
objects crossing your sky now

DELTA 1 DEB

Track DELTA 1 DEB now!
10-day predictions


NORAD ID: 10763
Int'l Code: 1976-077BL
Perigee: 1,502.9 km
Apogee: 1,577.0 km
Inclination: 102.2 °
Period: 116.7 minutes
Semi major axis: 7910 km
RCS: 0.0794 m2 (small)
Launch date: July 29, 1976
Source: United States (US)
Launch site: AIR FORCE WESTERN TEST RANGE (AFWTR)

Note: This is SATELLITE DEBRIS
Your satellite tracking list
Your tracking list is empty




NASA's NSSDC Master Catalog

Two Line Element Set (TLE):
1 10763U 76077BL  25342.17908769 -.00000003  00000-0  33960-3 0  9995
2 10763 102.2194 307.8094 0046851  14.2631   2.7363 12.33842913222924
Source of the keplerian elements: AFSPC